RH
20 17 17 17 16 16 15 14 15 16 17 15 14 14 13 15 18 20 24 25 25 25
20 19 20 21 19 19 18 16 17 18 19 19 17 14 14 13 16 19 19 23 23 22
29 27 26 25 23 20 19 18 19 20 22 23 22 21 18 16 14 15 17 17 19 20
31 29 29 27 25 23 22 22 22 21 22 22 22 23 23 22 20 16 16 16 16 17
30 30 27 24 24 24 24 26 28 29 31 31 30 28 27 26 25 24 20 17 17 16
23 23 21 21 20 21 22 24 25 27 30 33 37 37 36 35 33 31 28 25 21 18
20 21 22 22 21 20 21 22 23 25 27 29 32 37 42 44 43 41 40 37 32 28
22 20 21 23 25 27 27 27 27 28 30 35 41 46 48 48 49 50 50 50 48 45
26 25 24 24 24 24 25 25 27 28 27 28 29 30 33 36 37 40 43 45 49 53
31 30 28 28 28 26 27 28 27 25 22 21 23 25 28 31 33 35 36 37 39 42
36 41 41 36 34 31 27 26 26 26 25 24 25 27 29 31 32 33 35 38 40 41
30 32 34 36 34 32 35 37 39 36 33 33 33 30 30 32 33 33 34 37 40 42
41 35 36 38 35 33 34 35 36 36 36 37 36 37 38 38 36 34 34 34 36 38
43 40 40 37 38 37 37 37 35 34 35 35 36 36 36 36 36 37 38 39 41 43